THY6752 LTFM-LTAC

Flight info

Callsign THY6752
Flight time 0h 43m
Altitude 27000
Route VICEN1D/35L VICEN T380 ASMAP L333 LATGA
Aircraft A332/H-SDE3GHIJ2J3J5M1RVWXY/LB2D1

Departure

Time 2026-05-04 13:07
Airport İstanbul Airport (LTFM)

Arrival

Time 2026-05-04 13:50
Airport Esenboğa International Airport (LTAC)
Time Latitude Longitude Altitude Speed Heading
2026-05-04 12:41 41.27506 28.72083 338 ft 0 kts 269°
2026-05-04 12:55 41.27506 28.72085 338 ft 2 kts 269°
2026-05-04 12:55 41.27507 28.72120 336 ft 4 kts 269°
2026-05-04 12:55 41.27507 28.72156 334 ft 4 kts 269°
2026-05-04 12:55 41.27507 28.72191 334 ft 4 kts 269°
2026-05-04 12:56 41.27508 28.72221 333 ft 2 kts 269°
2026-05-04 12:56 41.27511 28.72254 332 ft 4 kts 239°
2026-05-04 12:56 41.27526 28.72268 332 ft 3 kts 179°
2026-05-04 12:56 41.27551 28.72268 332 ft 2 kts 179°
2026-05-04 12:57 41.27552 28.72268 332 ft 0 kts 179°
2026-05-04 13:00 41.27546 28.72268 333 ft 0 kts 179°
2026-05-04 13:01 41.27536 28.72268 334 ft 3 kts 179°
2026-05-04 13:01 41.27510 28.72269 334 ft 5 kts 179°
2026-05-04 13:01 41.27468 28.72269 334 ft 7 kts 179°
2026-05-04 13:01 41.27411 28.72271 337 ft 9 kts 178°
2026-05-04 13:02 41.27340 28.72272 333 ft 11 kts 179°
2026-05-04 13:02 41.27257 28.72274 333 ft 13 kts 179°
2026-05-04 13:02 41.27159 28.72277 335 ft 15 kts 179°
2026-05-04 13:02 41.27046 28.72279 334 ft 17 kts 179°
2026-05-04 13:03 41.26920 28.72282 332 ft 19 kts 178°
2026-05-04 13:03 41.26785 28.72285 336 ft 20 kts 179°
2026-05-04 13:03 41.26645 28.72289 333 ft 20 kts 179°
2026-05-04 13:03 41.26499 28.72292 336 ft 22 kts 178°
2026-05-04 13:04 41.26345 28.72296 332 ft 22 kts 179°
2026-05-04 13:04 41.26249 28.72296 336 ft 12 kts 178°
2026-05-04 13:04 41.26208 28.72365 332 ft 0 kts 91°
2026-05-04 13:04 41.26208 28.72366 332 ft 1 kts 91°
2026-05-04 13:05 41.26208 28.72384 335 ft 3 kts 91°
2026-05-04 13:05 41.26208 28.72418 334 ft 4 kts 88°
2026-05-04 13:05 41.26209 28.72469 333 ft 7 kts 88°
2026-05-04 13:05 41.26233 28.72519 333 ft 7 kts 26°
2026-05-04 13:06 41.26271 28.72524 337 ft 5 kts
2026-05-04 13:06 41.26402 28.72522 333 ft 49 kts 359°
2026-05-04 13:06 41.27016 28.72507 335 ft 126 kts 359°
2026-05-04 13:06 41.28126 28.72485 600 ft 179 kts 359°
2026-05-04 13:07 41.29405 28.72481 1722 ft 198 kts
2026-05-04 13:07 41.30920 28.72483 2133 ft 229 kts
2026-05-04 13:07 41.32536 28.72490 2964 ft 233 kts
2026-05-04 13:07 41.34146 28.72493 3929 ft 231 kts 358°
2026-05-04 13:08 41.35734 28.72154 4815 ft 233 kts 341°
2026-05-04 13:08 41.37125 28.71015 5698 ft 240 kts 321°
2026-05-04 13:08 41.38413 28.69611 6598 ft 239 kts 335°
2026-05-04 13:08 41.40013 28.69126 7491 ft 239 kts
2026-05-04 13:09 41.41602 28.69809 8397 ft 248 kts 29°
2026-05-04 13:09 41.42792 28.71529 9316 ft 263 kts 55°
2026-05-04 13:09 41.43293 28.73940 10148 ft 281 kts 78°
2026-05-04 13:09 41.43294 28.76652 10588 ft 305 kts 85°
2026-05-04 13:10 41.43184 28.79575 10924 ft 325 kts 86°
2026-05-04 13:10 41.43068 28.82627 11553 ft 333 kts 86°
2026-05-04 13:10 41.42972 28.85674 12445 ft 332 kts 83°
2026-05-04 13:10 41.42800 28.88742 13322 ft 342 kts 97°
2026-05-04 13:11 41.41950 28.91752 14145 ft 351 kts 108°
2026-05-04 13:11 41.40821 28.94673 14837 ft 358 kts 112°
2026-05-04 13:11 41.39544 28.97557 15493 ft 364 kts 115°
2026-05-04 13:11 41.38211 29.00440 16175 ft 368 kts 115°
2026-05-04 13:12 41.36867 29.03355 16873 ft 370 kts 115°
2026-05-04 13:12 41.35536 29.06304 17576 ft 373 kts 115°
2026-05-04 13:12 41.34218 29.09291 18254 ft 376 kts 114°
2026-05-04 13:12 41.32906 29.12314 18847 ft 379 kts 114°
2026-05-04 13:13 41.31591 29.15376 19354 ft 384 kts 114°
2026-05-04 13:13 41.30264 29.18480 19930 ft 387 kts 114°
2026-05-04 13:13 41.28928 29.21602 20487 ft 389 kts 114°
2026-05-04 13:13 41.27583 29.24742 21065 ft 392 kts 113°
2026-05-04 13:14 41.26228 29.27900 21610 ft 395 kts 113°
2026-05-04 13:14 41.24860 29.31081 22157 ft 398 kts 113°
2026-05-04 13:14 41.23482 29.34281 22693 ft 401 kts 113°
2026-05-04 13:14 41.22091 29.37506 23219 ft 404 kts 113°
2026-05-04 13:15 41.20689 29.40755 23753 ft 407 kts 114°
2026-05-04 13:15 41.19276 29.44023 24197 ft 410 kts 114°
2026-05-04 13:15 41.17852 29.47313 24663 ft 412 kts 114°
2026-05-04 13:15 41.16419 29.50618 25128 ft 413 kts 114°
2026-05-04 13:16 41.14984 29.53924 25600 ft 415 kts 114°
2026-05-04 13:16 41.13537 29.57257 26054 ft 418 kts 114°
2026-05-04 13:16 41.12083 29.60603 26534 ft 420 kts 114°
2026-05-04 13:16 41.10620 29.63967 26925 ft 422 kts 114°
2026-05-04 13:17 41.09163 29.67305 27011 ft 411 kts 114°
2026-05-04 13:17 41.07749 29.70525 27006 ft 399 kts 114°
2026-05-04 13:17 41.06358 29.73698 27005 ft 396 kts 113°
2026-05-04 13:17 41.04987 29.76860 26996 ft 395 kts 111°
2026-05-04 13:18 41.03834 29.80133 27006 ft 391 kts 106°
2026-05-04 13:18 41.02799 29.83458 26994 ft 390 kts 105°
2026-05-04 13:18 41.01791 29.86785 27005 ft 390 kts 105°
2026-05-04 13:18 41.00803 29.90083 26995 ft 390 kts 105°
2026-05-04 13:19 40.99806 29.93424 27006 ft 390 kts 105°
2026-05-04 13:19 40.99134 29.95679 27003 ft 390 kts 105°
2026-05-04 13:19 40.97802 30.00153 27000 ft 390 kts 105°
2026-05-04 13:19 40.96821 30.03447 26999 ft 390 kts 105°
2026-05-04 13:20 40.95824 30.06792 26998 ft 391 kts 105°
2026-05-04 13:20 40.94827 30.10133 26998 ft 391 kts 105°
2026-05-04 13:20 40.93829 30.13474 26998 ft 391 kts 105°
2026-05-04 13:20 40.92831 30.16810 26998 ft 391 kts 105°
2026-05-04 13:21 40.91830 30.20152 27014 ft 390 kts 105°
2026-05-04 13:21 40.90829 30.23490 26997 ft 391 kts 105°
2026-05-04 13:21 40.89827 30.26830 26990 ft 391 kts 105°
2026-05-04 13:21 40.88811 30.30211 26994 ft 391 kts 105°
2026-05-04 13:22 40.87806 30.33549 26991 ft 391 kts 105°
2026-05-04 13:22 40.86801 30.36884 26991 ft 391 kts 105°
2026-05-04 13:22 40.85794 30.40221 26986 ft 391 kts 105°
2026-05-04 13:22 40.84801 30.43509 26992 ft 391 kts 105°
2026-05-04 13:23 40.83792 30.46844 26991 ft 391 kts 105°
2026-05-04 13:23 40.82784 30.50174 26982 ft 391 kts 105°
2026-05-04 13:23 40.81772 30.53510 26980 ft 391 kts 105°
2026-05-04 13:23 40.80761 30.56841 26980 ft 391 kts 105°
2026-05-04 13:24 40.79749 30.60172 26975 ft 391 kts 105°
2026-05-04 13:24 40.78735 30.63503 26978 ft 391 kts 105°
2026-05-04 13:24 40.77720 30.66832 26977 ft 391 kts 105°
2026-05-04 13:25 40.75690 30.73481 26969 ft 391 kts 105°
2026-05-04 13:25 40.74672 30.76810 26968 ft 391 kts 105°
2026-05-04 13:25 40.73654 30.80134 26967 ft 391 kts 105°
2026-05-04 13:25 40.72637 30.83451 26966 ft 391 kts 105°
2026-05-04 13:26 40.71948 30.85697 26966 ft 391 kts 105°
2026-05-04 13:26 40.70928 30.89016 26964 ft 391 kts 105°
2026-05-04 13:26 40.69907 30.92336 26969 ft 391 kts 105°
2026-05-04 13:26 40.68885 30.95651 26968 ft 391 kts 105°
2026-05-04 13:27 40.67860 30.98977 26969 ft 391 kts 105°
2026-05-04 13:27 40.66835 31.02296 26988 ft 391 kts 105°
2026-05-04 13:27 40.65810 31.05608 26948 ft 391 kts 105°
2026-05-04 13:27 40.64784 31.08921 26970 ft 390 kts 105°
2026-05-04 13:28 40.63758 31.12232 26960 ft 390 kts 105°
2026-05-04 13:28 40.62745 31.15497 26940 ft 390 kts 105°
2026-05-04 13:28 40.61717 31.18805 26941 ft 391 kts 105°
2026-05-04 13:28 40.60687 31.22115 26946 ft 391 kts 105°
2026-05-04 13:29 40.59661 31.25413 26936 ft 390 kts 105°
2026-05-04 13:29 40.58629 31.28723 26943 ft 390 kts 105°
2026-05-04 13:29 40.57581 31.32094 26792 ft 407 kts 104°
2026-05-04 13:29 40.56494 31.35589 26520 ft 415 kts 105°
2026-05-04 13:30 40.55394 31.39098 26256 ft 415 kts 105°
2026-05-04 13:30 40.54292 31.42598 26006 ft 413 kts 105°
2026-05-04 13:30 40.53197 31.46077 25757 ft 411 kts 105°
2026-05-04 13:30 40.52109 31.49538 25499 ft 409 kts 105°
2026-05-04 13:31 40.51023 31.52984 25254 ft 407 kts 105°
2026-05-04 13:31 40.49947 31.56392 25024 ft 400 kts 105°
2026-05-04 13:31 40.48886 31.59747 24678 ft 395 kts 105°
2026-05-04 13:31 40.47835 31.63073 24191 ft 394 kts 105°
2026-05-04 13:32 40.46790 31.66384 23761 ft 391 kts 105°
2026-05-04 13:32 40.45748 31.69678 23278 ft 389 kts 105°
2026-05-04 13:32 40.44713 31.72943 22813 ft 385 kts 106°
2026-05-04 13:32 40.43686 31.76177 22395 ft 381 kts 106°
2026-05-04 13:33 40.42671 31.79371 21973 ft 377 kts 106°
2026-05-04 13:33 40.41666 31.82527 21553 ft 374 kts 106°
2026-05-04 13:33 40.40666 31.85671 21174 ft 373 kts 107°
2026-05-04 13:33 40.39667 31.88808 20731 ft 373 kts 107°
2026-05-04 13:34 40.38665 31.91952 20296 ft 373 kts 108°
2026-05-04 13:34 40.37666 31.95080 19881 ft 371 kts 108°
2026-05-04 13:34 40.36669 31.98192 19468 ft 369 kts 108°
2026-05-04 13:34 40.35678 32.01285 19062 ft 367 kts 108°
2026-05-04 13:35 40.34691 32.04366 18610 ft 366 kts 108°
2026-05-04 13:35 40.33420 32.10653 17722 ft 350 kts 85°
2026-05-04 13:35 40.33628 32.13791 17320 ft 343 kts 78°
2026-05-04 13:36 40.33973 32.16833 16907 ft 342 kts 78°
2026-05-04 13:36 40.34340 32.19909 16486 ft 342 kts 78°
2026-05-04 13:36 40.34704 32.22981 16065 ft 341 kts 79°
2026-05-04 13:36 40.35061 32.26044 15656 ft 339 kts 79°
2026-05-04 13:37 40.35412 32.29095 15248 ft 338 kts 79°
2026-05-04 13:37 40.35747 32.32135 14850 ft 337 kts 82°
2026-05-04 13:37 40.35748 32.35199 14460 ft 338 kts 96°
2026-05-04 13:37 40.35285 32.38220 14074 ft 338 kts 101°
2026-05-04 13:38 40.34705 32.41198 13687 ft 337 kts 103°
2026-05-04 13:38 40.34113 32.44160 13258 ft 335 kts 103°
2026-05-04 13:38 40.33527 32.47104 12863 ft 332 kts 102°
2026-05-04 13:38 40.32949 32.50025 12484 ft 331 kts 102°
2026-05-04 13:39 40.32374 32.52942 12104 ft 329 kts 103°
2026-05-04 13:39 40.31806 32.55835 11711 ft 327 kts 103°
2026-05-04 13:39 40.31243 32.58698 11329 ft 324 kts 103°
2026-05-04 13:39 40.30683 32.61541 10982 ft 319 kts 103°
2026-05-04 13:40 40.29960 32.64221 10884 ft 307 kts 116°
2026-05-04 13:40 40.28727 32.66426 10798 ft 295 kts 136°
2026-05-04 13:40 40.27056 32.67898 10662 ft 288 kts 155°
2026-05-04 13:40 40.25144 32.68534 10531 ft 282 kts 176°
2026-05-04 13:41 40.23203 32.68315 10440 ft 282 kts 195°
2026-05-04 13:41 40.21418 32.67305 10195 ft 278 kts 212°
2026-05-04 13:41 40.19737 32.66060 9930 ft 278 kts 206°
2026-05-04 13:42 40.16072 32.64542 9485 ft 271 kts 195°
2026-05-04 13:42 40.14279 32.63957 9391 ft 261 kts 195°
2026-05-04 13:42 40.12548 32.63402 9281 ft 252 kts 195°
2026-05-04 13:42 40.10836 32.62866 9173 ft 254 kts 193°
2026-05-04 13:43 40.09078 32.62810 9099 ft 256 kts 167°
2026-05-04 13:43 40.07526 32.63898 9028 ft 255 kts 131°
2026-05-04 13:43 40.06677 32.65817 8933 ft 240 kts 107°
2026-05-04 13:43 40.06236 32.67907 8516 ft 237 kts 100°
2026-05-04 13:44 40.05884 32.69977 8232 ft 230 kts 100°
2026-05-04 13:44 40.05489 32.71992 7988 ft 232 kts 106°
2026-05-04 13:44 40.04713 32.73887 7646 ft 240 kts 121°
2026-05-04 13:44 40.03745 32.75671 7301 ft 240 kts 126°
2026-05-04 13:45 40.02756 32.77416 7023 ft 239 kts 125°
2026-05-04 13:45 40.01774 32.79146 6763 ft 234 kts 126°
2026-05-04 13:45 40.00834 32.80808 6549 ft 228 kts 124°
2026-05-04 13:45 39.99909 32.82451 6243 ft 222 kts 125°
2026-05-04 13:46 39.99146 32.84152 5911 ft 215 kts 106°
2026-05-04 13:46 39.99132 32.86010 5519 ft 202 kts 65°
2026-05-04 13:46 39.99917 32.87430 5265 ft 191 kts 36°
2026-05-04 13:46 40.00956 32.88489 5032 ft 190 kts 31°
2026-05-04 13:47 40.02030 32.89486 4720 ft 189 kts 29°
2026-05-04 13:47 40.03102 32.90474 4699 ft 184 kts 31°
2026-05-04 13:47 40.04107 32.91405 4762 ft 171 kts 28°
2026-05-04 13:47 40.05073 32.92285 4739 ft 167 kts 30°
2026-05-04 13:48 40.05967 32.93150 4591 ft 154 kts 30°
2026-05-04 13:48 40.06802 32.93938 4356 ft 145 kts 28°
2026-05-04 13:48 40.07619 32.94707 4098 ft 145 kts 29°
2026-05-04 13:48 40.08434 32.95476 3855 ft 145 kts 28°
2026-05-04 13:49 40.09252 32.96257 3731 ft 147 kts 32°
2026-05-04 13:49 40.10063 32.97054 3530 ft 145 kts 29°
2026-05-04 13:49 40.10885 32.97835 3320 ft 147 kts 28°
2026-05-04 13:49 40.11696 32.98601 3150 ft 141 kts 28°
2026-05-04 13:50 40.12408 32.99268 3128 ft 102 kts 36°
2026-05-04 13:50 40.12820 32.99662 3137 ft 45 kts 36°
2026-05-04 13:50 40.13026 32.99911 3133 ft 37 kts 63°
2026-05-04 13:50 40.13126 33.00207 3131 ft 34 kts 65°
2026-05-04 13:51 40.13254 33.00385 3135 ft 13 kts 36°
2026-05-04 13:51 40.13325 33.00452 3137 ft 12 kts 36°
2026-05-04 13:51 40.13391 33.00516 3137 ft 12 kts 36°
2026-05-04 13:51 40.13465 33.00586 3136 ft 14 kts 36°
2026-05-04 13:52 40.13479 33.00599 3136 ft 0 kts 36°
2026-05-04 13:52 40.13483 33.00603 3136 ft 1 kts 36°
2026-05-04 13:52 40.13491 33.00610 3137 ft 2 kts 36°
2026-05-04 13:53 40.13495 33.00615 3137 ft 0 kts 36°
2026-05-04 13:53 40.13496 33.00615 3137 ft 0 kts 36°
2026-05-04 13:58 40.13413 33.00509 3137 ft 16 kts 100°
2026-05-04 13:58 40.13369 33.00497 3137 ft 12 kts 187°
2026-05-04 13:59 40.13321 33.00548 3137 ft 12 kts 99°
2026-05-04 13:59 40.13370 33.00626 3135 ft 16 kts 37°
2026-05-04 13:59 40.13545 33.00794 3135 ft 16 kts 36°
2026-05-04 14:00 40.13632 33.00877 3131 ft 16 kts 36°
2026-05-04 14:00 40.13744 33.00983 3131 ft 9 kts 31°
2026-05-04 14:00 40.13744 33.01029 3131 ft 7 kts 116°
2026-05-04 14:01 40.13720 33.01077 3132 ft 7 kts 125°
2026-05-04 14:01 40.13714 33.01089 3133 ft 1 kts 126°